Regional Weather Roundup
Issued by NWS Sterling, VA

Home | Current Version | Previous Version | Text Only | Print | Product List | Glossary Off
Versions: 1 2 3 4 5 6 7 8 9 10 11 12 13 14 15 16 17 18 19 20 21 22 23 24 25 26 27 28 29 30 31 32 33 34 35 36 37 38 39 40 41 42 43 44 45 46 47 48 49 50

000
ASUS41 KLWX 311710
RWRLWX

REGIONAL WEATHER ROUNDUP
NATIONAL WEATHER SERVICE BALTIMORE MD/WASHINGTON DC
1200 PM EST SAT JAN 31 2015

Note: "FAIR" indicates few or no clouds below 12,000 feet
with no significant weather and/or obstructions to visibility.
 TC=TEMPERATURE CELSIUS

 * =Non NWS site. Station does not report precipitation (e.g. rain,
    snow, etc.), thunder, or fog.

DCZ001-MDZ009-015-VAZ040>042-051-053>054-311800-
WASHINGTON METRO

CITY           SKY/WX    TMP DP  RH WIND       PRES   REMARKS
WASHINGTON NAT SUNNY     30   3  31 NW12G18   30.35F WCI  20
DULLES         SUNNY     26   5  40 NW15      30.33F WCI  14
ANDREWS AFB    SUNNY     26   3  36 NW14      30.31F WCI  15
FT BELVOIR     SUNNY     28   3  33 NW13G23   30.36F WCI  17
QUANTICO       SUNNY     30   4  33 N16G25    30.36F WCI  19
COLLEGE PARK*  SUNNY     28   3  34 W10G17    30.33F WCI  19
LEESBURG*      SUNNY     28  12  50 NW15G22   30.33F WCI  17
MANASSAS*      SUNNY     28   9  43 N9G17     30.35F WCI  20
GAITHERSBURG*  SUNNY     23   7  50 NW15G22   30.34F WCI  10

$$

MDZ006>007-011-014-311800-
BALTIMORE METRO

CITY           SKY/WX    TMP DP  RH WIND       PRES   REMARKS
BWI AIRPORT    SUNNY     26   4  38 NW13G22   30.31F WCI  15
MD SCIENCE CTR   N/A     25   4  40 MISG      30.31F
MARTIN STATE   SUNNY     28   7  40 MISG      30.32F
ANNAPOLIS      SUNNY     26   8  46 NW14      30.31F WCI  14
FORT MEADE*    SUNNY     28   7  40 W16       30.34F WCI  17

$$

MDZ012-015-019>023-311800-
MARYLAND EASTERN SHORE

CITY           SKY/WX    TMP DP  RH WIND       PRES   REMARKS
OCEAN CITY     SUNNY     29   4  34 N22G30    30.25F WCI  15
SALISBURY      SUNNY     31   7  36 NW17G24   30.27F WCI  19
BAY BRIDGE AP*   N/A     28   5  37 NW10G18   30.32F WCI  19
CAMBRIDGE*     SUNNY     30   9  40 NW13G18   30.30F WCI  20
EASTON*        SUNNY     28   9  43 NW21G28   30.33F WCI  15

$$

MDZ017>025-311800-
SOUTHERN MARYLAND

CITY           SKY/WX    TMP DP  RH WIND       PRES   REMARKS
PATUXENT RIVER SUNNY     29   2  31 NW20      30.31F WCI  16
ST INIGOES     NOT AVBL
LEONARDTOWN*   SUNNY     30   0  27 W14       30.33F WCI  20

$$

MDZ003>005-311800-
NORTH CENTRAL MARYLAND

CITY           SKY/WX    TMP DP  RH WIND       PRES   REMARKS
FREDERICK*     NOT AVBL
HAGERSTOWN APT SUNNY     23   4  44 NW7       30.30F
WESTMINSTER*   SUNNY     21   5  49 NW15G22   30.26F WCI   8

$$

MDZ501>502-311800-
WESTERN MARYLAND

CITY           SKY/WX    TMP DP  RH WIND       PRES   REMARKS
OAKLAND*       SUNNY     18  12  79 W8        30.17F WCI   7
CUMBERLAND*    SUNNY     28   9  43 N9G16     30.35F WCI  20

$$

VAZ025>031-311800-
SHENANDOAH VALLEY

CITY           SKY/WX    TMP DP  RH WIND       PRES   REMARKS
WINCHESTER*    SUNNY     28   7  40 NW15      30.30F WCI  17
FRONT ROYAL*   FAIR      30   7  37 NW3       30.28F
LURAY*         FAIR      34   5  29 SE5       30.28F
NEW MARKET*    FAIR      30   3  31 CALM      30.28F
STAUNTON*      SUNNY     31   0  26 CALM      30.28F
WAYNESBORO*    FAIR      33   0  24 SW3       30.25F

$$

WVZ021-048>050-054>055-311800-
EASTERN WEST VIRGINIA PANHANDLE

CITY           SKY/WX    TMP DP  RH WIND       PRES   REMARKS
MARTINSBURG    SUNNY     26   6  42 NW10      30.31F WCI  16
PETERSBURG*    SUNNY     28   3  34 CALM      30.30F

$$

VAZ036>039-050-311800-
CENTRAL FOOTHILLS

CITY           SKY/WX    TMP DP  RH WIND       PRES   REMARKS
CHARLOTTESVILL SUNNY     35   1  23 VRB3      30.29F
CULPEPER*      SUNNY     32   1  27 CALM      30.33F
ORANGE*        SUNNY     34   7  32 S3        30.33F
GORDONSVILLE*  FAIR      34   2  26 CALM      30.30F
WARRENTON*     FAIR      33  13  43 NW3       30.32F

$$

VAZ055>057-311800-
NORTH AND CENTRAL PIEDMONT

CITY           SKY/WX    TMP DP  RH WIND       PRES   REMARKS
FREDERICKSBRG* SUNNY     32   3  29 NW5       30.34F
STAFFORD*      SUNNY     31   1  27 W3        30.38F

$$

NCZ024-NYZ072-PAZ021-071-VAZ022-071-311800-
OTHER REGIONAL OBSERVATIONS

CITY           SKY/WX    TMP DP  RH WIND       PRES   REMARKS
NEW YORK CITY  SUNNY     21  -2  36 W10G21    30.14F WCI  10
PHILADELPHIA   SUNNY     24   0  35 NW21G32   30.25F WCI   9
PITTSBURGH     PTSUNNY   22  11  62 W7        30.31F
ROANOKE        MOSUNNY   37   6  27 S9        30.31F
RICHMOND       MOSUNNY   35   4  27 NW8       30.34F WCI  29
RALEIGH        PTSUNNY   40   3  21 VRB7      30.36F

$$

ANZ530>537-311800-
MARINE OBSERVATIONS

STATION/POSITION TIME  TEMP    WIND        PRES
                       AIR SEA DIR/SP/G
                 (UTC) (F)     (DEG/KT/KT) (MB)
THOMAS PT LIGHT  1700   25 34  310/ 14/ 16 1027.3F
BALT KEY BRIDGE  1700   24     290/ 12/ 15 1026.7F
COVE POINT       1700   24     350/ 19/ 22 1026.4F
LEWISETTA        1700   27 34  300/ 13/ 17 1026.9F
SOLOMONS ISLAND  1700      36                N/A
PINEY POINT      1700          320/ 18/ 21   N/A

$$




USA.gov is the U.S. government's official web portal to all federal, state and local government web resources and services.